Westerly, RI

11:10 AM EDT on July 24, 2017 (GMT -0400)
Westerly State

Weather History for KWST - August, 2014

Change the Weather History Date:

Tuesday, August 19, 2014

  Actual Average (KGON) Record (KGON)
Temperature  
Mean Temperature 64 °F -  
Max Temperature 75 °F 78 °F 89 °F (1966)
Min Temperature 54 °F 60 °F 49 °F (1958)
Growing Degree Days 14 (Base 50)    
Moisture  
Dew Point 53 °F    
Average Humidity 68    
Maximum Humidity 90    
Minimum Humidity 41    
Precipitation  
Precipitation 0.00 in - - ()
Sea Level Pressure  
Sea Level Pressure 29.93 in    
Wind  
Wind Speed 4 mph (East)    
Max Wind Speed 10 mph    
Max Gust Speed -    
Visibility 10 miles    
Events      
Averages and records for this station are not official NWS values.
T = Trace of Precipitation, MM = Missing Value Source: NWS Daily Summary

Daily Weather History Graph

Daily Weather History Graph

Search for Another Location

Airport or City:

Trip Planner

Search our weather history database for the weather conditions in past years. The results will help you decide how hot, cold, wet, or windy it might be!

Date:

Astronomy

Aug. 19, 2014 Rise Set
Actual Time 6:00 AM EDT 7:40 PM EDT
Civil Twilight 5:30 AM EDT 8:09 PM EDT
Nautical Twilight 4:55 AM EDT 8:45 PM EDT
Astronomical Twilight 4:17 AM EDT 9:23 PM EDT
Moon 12:49 AM EDT (8/19) 3:35 PM EDT (8/19)
Length of Visible Light 14h 38m
Length of Day
13h 40m
Waning Crescent, 29% of the Moon is Illuminated
Aug 19
Waning Crescent
Aug 25
New
Sep 2
First Quarter
Sep 8
Full
Sep 15
Last Quarter

Hourly Weather History & Observations

Time (EDT) Temp. Dew Point Humidity Pressure Visibility Wind Dir Wind Speed Gust Speed Precip Events Conditions
12:53 AM 59.0 °F 52.0 °F 78% 29.88 in 10.0 mi North 3.5 mph - N/A   Clear
1:53 AM 57.9 °F 52.0 °F 81% 29.88 in 10.0 mi North 3.5 mph - N/A   Clear
2:53 AM 57.9 °F 51.1 °F 78% 29.88 in 10.0 mi Calm Calm - N/A   Partly Cloudy
3:53 AM 55.0 °F 51.1 °F 86% 29.90 in 10.0 mi Calm Calm - N/A   Partly Cloudy
4:53 AM 54.0 °F 51.1 °F 90% 29.90 in 10.0 mi North 4.6 mph - N/A   Clear
5:53 AM 54.0 °F 50.0 °F 86% 29.91 in 10.0 mi NNE 3.5 mph - N/A   Clear
6:53 AM 54.0 °F 50.0 °F 86% 29.92 in 10.0 mi NNE 3.5 mph - N/A   Clear
7:53 AM 61.0 °F 51.1 °F 70% 29.93 in 10.0 mi NNE 4.6 mph - N/A   Clear
8:53 AM 66.9 °F 52.0 °F 59% 29.93 in 10.0 mi NE 5.8 mph - N/A   Clear
9:53 AM 72.0 °F 48.9 °F 44% 29.94 in 10.0 mi NNE 5.8 mph - N/A   Clear
10:53 AM 75.0 °F 50.0 °F 41% 29.95 in 10.0 mi NNE 4.6 mph - N/A   Clear
11:53 AM 73.9 °F 54.0 °F 50% 29.94 in 10.0 mi South 8.1 mph - N/A   Clear
12:53 PM 73.9 °F 52.0 °F 46% 29.94 in 10.0 mi SSE 8.1 mph - N/A   Clear
1:53 PM 75.0 °F 50.0 °F 41% 29.93 in 10.0 mi South 9.2 mph - N/A   Clear
2:53 PM 73.9 °F 53.1 °F 48% 29.92 in 10.0 mi South 9.2 mph - N/A   Clear
3:53 PM 75.9 °F 51.1 °F 42% 29.92 in 10.0 mi SSW 8.1 mph - N/A   Clear
4:53 PM 73.9 °F 53.1 °F 48% 29.93 in 10.0 mi SSW 10.4 mph - N/A   Clear
5:53 PM 73.0 °F 55.9 °F 55% 29.92 in 10.0 mi South 9.2 mph - N/A   Clear
6:53 PM 71.1 °F 60.1 °F 68% 29.93 in 10.0 mi South 5.8 mph - N/A   Clear
7:53 PM 68.0 °F 62.1 °F 81% 29.93 in 10.0 mi SSE 3.5 mph - N/A   Clear
8:53 PM 64.0 °F 60.1 °F 87% 29.95 in 10.0 mi Calm Calm - N/A   Clear
9:53 PM 62.1 °F 59.0 °F 90% 29.95 in 10.0 mi Calm Calm - N/A   Clear
10:53 PM 60.1 °F 55.9 °F 86% 29.96 in 10.0 mi ENE 3.5 mph - N/A   Clear
11:53 PM 60.1 °F 57.0 °F 90% 29.97 in 10.0 mi Calm Calm - N/A   Clear